Location: Tafessasset
(32.5899°N, 5.4824°W)
Time: 06:13:33
(UTC+00:00)

STARLINK-1101 - Pass Details

Date: 18 February 2020
Orbit: 548 x 551 km, 53.0° (Epoch: 08 April)

Event Time Altitude Azimuth Distance (km) Brightness Sun altitude
Exits shadow 05:26:01 62° 236° (SW) 615 3.5 -21.0°
Maximum altitude 05:26:39 84° 312° (NW) 554 3.4 -20.8°
Drops below altitude 10° 05:30:47 10° 42° (NE) 1,819 6.8 -20.0°
Sets 05:33:02 0° 43° (NE) 2,716 7.8 -19.5°
